65689 UUMU-UUMU

Flight info

Callsign 65689
Flight time 0h 7m
Altitude 6000
Route RAA060
Aircraft T134/M-SDE3GHIJ2J3J5M1RVWXYZ/LB2D1

Departure

Time 2026-05-09 08:14
Airport Chkalovskiy Air Base (UUMU)

Arrival

Time 2026-05-09 08:21
Airport Chkalovskiy Air Base (UUMU)
Time Latitude Longitude Altitude Speed Heading
2026-05-09 07:58 55.88364 38.03083 507 ft 0 kts 100°
2026-05-09 08:08 55.88363 38.03088 507 ft 3 kts 100°
2026-05-09 08:09 55.88371 38.03170 507 ft 7 kts 36°
2026-05-09 08:09 55.88430 38.03203 507 ft 10 kts 12°
2026-05-09 08:09 55.88517 38.03271 507 ft 20 kts 31°
2026-05-09 08:09 55.88651 38.03416 507 ft 22 kts 86°
2026-05-09 08:10 55.88661 38.03716 507 ft 26 kts 18°
2026-05-09 08:10 55.88817 38.03871 507 ft 21 kts 94°
2026-05-09 08:10 55.88734 38.04059 507 ft 23 kts 130°
2026-05-09 08:10 55.88607 38.04321 507 ft 32 kts 131°
2026-05-09 08:11 55.88437 38.04649 507 ft 39 kts 134°
2026-05-09 08:11 55.88247 38.05042 507 ft 45 kts 130°
2026-05-09 08:11 55.88034 38.05490 507 ft 50 kts 131°
2026-05-09 08:11 55.87795 38.05994 507 ft 55 kts 131°
2026-05-09 08:12 55.87306 38.07002 507 ft 39 kts 130°
2026-05-09 08:12 55.87308 38.07345 507 ft 27 kts
2026-05-09 08:12 55.87472 38.07379 507 ft 23 kts
2026-05-09 08:13 55.87558 38.07301 507 ft 0 kts 311°
2026-05-09 08:13 55.87702 38.06998 507 ft 74 kts 310°
2026-05-09 08:14 55.88197 38.05957 507 ft 143 kts 311°
2026-05-09 08:14 55.88967 38.04391 621 ft 189 kts 310°
2026-05-09 08:14 55.89902 38.02473 847 ft 210 kts 310°
2026-05-09 08:14 55.90881 38.00612 1253 ft 212 kts 326°
2026-05-09 08:15 55.92331 38.00049 1314 ft 224 kts 10°
2026-05-09 08:15 55.93734 38.01252 1641 ft 229 kts 38°
2026-05-09 08:15 55.94867 38.03313 1544 ft 237 kts 66°
2026-05-09 08:15 55.95079 38.06081 1419 ft 224 kts 103°
2026-05-09 08:16 55.94350 38.08528 1341 ft 223 kts 129°
2026-05-09 08:16 55.93373 38.10700 1551 ft 229 kts 129°
2026-05-09 08:16 55.92423 38.13031 1540 ft 236 kts 123°
2026-05-09 08:16 55.91505 38.15456 1373 ft 240 kts 129°
2026-05-09 08:17 55.90419 38.17719 1551 ft 234 kts 131°
2026-05-09 08:17 55.89400 38.19923 1750 ft 228 kts 127°
2026-05-09 08:17 55.88504 38.22253 1801 ft 231 kts 122°
2026-05-09 08:17 55.87575 38.24608 1616 ft 233 kts 138°
2026-05-09 08:18 55.86175 38.25800 1598 ft 225 kts 174°
2026-05-09 08:18 55.84677 38.25251 1473 ft 221 kts 213°
2026-05-09 08:18 55.83536 38.23526 1572 ft 212 kts 223°
2026-05-09 08:18 55.82837 38.21273 1483 ft 211 kts 262°
2026-05-09 08:19 55.83025 38.18710 1323 ft 206 kts 294°
2026-05-09 08:19 55.83701 38.16564 1431 ft 189 kts 298°
2026-05-09 08:19 55.84293 38.14618 1338 ft 172 kts 297°
2026-05-09 08:19 55.84681 38.13420 1365 ft 165 kts 303°
2026-05-09 08:20 55.85418 38.11820 1263 ft 169 kts 310°
2026-05-09 08:20 55.86175 38.10258 936 ft 163 kts 309°
2026-05-09 08:20 55.86879 38.08767 660 ft 155 kts 308°
2026-05-09 08:20 55.87544 38.07334 510 ft 144 kts 309°
2026-05-09 08:21 55.88102 38.06161 507 ft 101 kts 311°
2026-05-09 08:21 55.88480 38.05373 507 ft 68 kts 309°
2026-05-09 08:21 55.88748 38.04834 507 ft 55 kts 310°
2026-05-09 08:21 55.88905 38.04497 507 ft 20 kts 310°
2026-05-09 08:22 55.88976 38.04347 507 ft 7 kts 311°
2026-05-09 08:22 55.88977 38.04235 507 ft 12 kts 212°
2026-05-09 08:22 55.88883 38.04237 507 ft 12 kts 182°
2026-05-09 08:22 55.88817 38.04219 507 ft 9 kts 192°
2026-05-09 08:23 55.88763 38.04199 507 ft 9 kts 190°
2026-05-09 08:23 55.88669 38.04180 507 ft 12 kts 152°
2026-05-09 08:23 55.88635 38.04246 507 ft 7 kts 129°
2026-05-09 08:23 55.88599 38.04327 507 ft 9 kts 129°
2026-05-09 08:24 55.88555 38.04423 507 ft 11 kts 129°
2026-05-09 08:24 55.88503 38.04531 507 ft 12 kts 130°
2026-05-09 08:24 55.88440 38.04660 507 ft 15 kts 131°
2026-05-09 08:24 55.88364 38.04813 507 ft 17 kts 131°
2026-05-09 08:25 55.88276 38.04986 507 ft 20 kts 133°
2026-05-09 08:25 55.88176 38.05177 507 ft 22 kts 133°
2026-05-09 08:25 55.88062 38.05384 507 ft 23 kts 136°
2026-05-09 08:25 55.87993 38.05504 507 ft 6 kts 123°
2026-05-09 08:26 55.87948 38.05637 507 ft 19 kts 117°
2026-05-09 08:26 55.87893 38.05772 507 ft 0 kts 130°
2026-05-09 08:26 55.87881 38.05797 507 ft 11 kts 131°
2026-05-09 08:27 55.87777 38.06004 507 ft 27 kts 132°
2026-05-09 08:27 55.87655 38.06242 507 ft 23 kts 128°
2026-05-09 08:27 55.87513 38.06556 507 ft 42 kts 132°
2026-05-09 08:27 55.87332 38.06947 507 ft 40 kts 129°
2026-05-09 08:28 55.87283 38.07317 507 ft 25 kts 29°
2026-05-09 08:28 55.87483 38.07358 507 ft 33 kts 335°
2026-05-09 08:28 55.87807 38.06772 507 ft 106 kts 311°
2026-05-09 08:28 55.88439 38.05469 534 ft 166 kts 310°
2026-05-09 08:29 55.89292 38.03770 745 ft 207 kts 312°
2026-05-09 08:29 55.90304 38.01852 1053 ft 214 kts 315°
2026-05-09 08:29 55.91595 38.00705 1213 ft 213 kts 358°
2026-05-09 08:29 55.92995 38.01583 1522 ft 217 kts 31°
2026-05-09 08:30 55.94305 38.03080 1746 ft 235 kts 42°
2026-05-09 08:30 55.95208 38.05625 1850 ft 260 kts 79°
2026-05-09 08:30 55.95096 38.08911 1889 ft 283 kts 111°
2026-05-09 08:30 55.94172 38.11904 1684 ft 266 kts 122°
2026-05-09 08:31 55.93211 38.14585 1643 ft 244 kts 124°
2026-05-09 08:31 55.92248 38.16923 1592 ft 227 kts 129°
2026-05-09 08:31 55.91314 38.19080 1595 ft 214 kts 127°
2026-05-09 08:31 55.90451 38.21154 1637 ft 202 kts 126°
2026-05-09 08:32 55.89614 38.23135 1548 ft 197 kts 128°
2026-05-09 08:32 55.88764 38.24942 1647 ft 186 kts 135°
2026-05-09 08:32 55.86250 38.25511 2130 ft 196 kts 211°
2026-05-09 08:33 55.85062 38.24115 1896 ft 205 kts 217°
2026-05-09 08:33 55.83963 38.22613 1845 ft 189 kts 214°
2026-05-09 08:33 55.82880 38.21334 1561 ft 192 kts 217°
2026-05-09 08:33 55.82159 38.19333 1390 ft 197 kts 255°
2026-05-09 08:34 55.82375 38.16980 1305 ft 209 kts 309°
2026-05-09 08:34 55.83467 38.15536 1140 ft 187 kts 325°
2026-05-09 08:34 55.84379 38.14095 1376 ft 173 kts 309°
2026-05-09 08:34 55.85169 38.12353 1220 ft 183 kts 309°
2026-05-09 08:35 55.85963 38.10640 947 ft 175 kts 309°
2026-05-09 08:35 55.86725 38.09045 718 ft 166 kts 309°
2026-05-09 08:35 55.87455 38.07529 521 ft 155 kts 309°
2026-05-09 08:35 55.88084 38.06209 507 ft 115 kts 310°
2026-05-09 08:36 55.88502 38.05337 507 ft 73 kts 310°
2026-05-09 08:36 55.88790 38.04749 507 ft 45 kts 311°
2026-05-09 08:36 55.88938 38.04428 507 ft 32 kts 308°
2026-05-09 08:36 55.88932 38.04253 507 ft 14 kts 179°
2026-05-09 08:37 55.88818 38.04222 507 ft 19 kts 188°
2026-05-09 08:37 55.88695 38.04198 507 ft 20 kts 161°
2026-05-09 08:37 55.88554 38.04446 507 ft 35 kts 135°
2026-05-09 08:37 55.88393 38.04747 507 ft 32 kts 134°
2026-05-09 08:38 55.88256 38.05031 507 ft 29 kts 129°
2026-05-09 08:38 55.88120 38.05320 507 ft 30 kts 130°
2026-05-09 08:38 55.87971 38.05611 507 ft 31 kts 132°
2026-05-09 08:38 55.87823 38.05927 507 ft 34 kts 134°
2026-05-09 08:39 55.87656 38.06259 507 ft 38 kts 125°
2026-05-09 08:39 55.87479 38.06631 507 ft 35 kts 120°
2026-05-09 08:39 55.87339 38.06938 507 ft 31 kts 131°
2026-05-09 08:39 55.87213 38.07198 507 ft 24 kts 124°
2026-05-09 08:40 55.87225 38.07330 507 ft 3 kts 29°
2026-05-09 08:40 55.87324 38.07344 507 ft 12 kts
2026-05-09 08:40 55.87474 38.07377 507 ft 30 kts 355°
2026-05-09 08:40 55.87703 38.07002 507 ft 82 kts 310°
2026-05-09 08:41 55.88240 38.05884 507 ft 152 kts 310°
2026-05-09 08:41 55.89022 38.04255 735 ft 192 kts 310°
2026-05-09 08:41 55.89945 38.02331 1081 ft 206 kts 309°
2026-05-09 08:41 55.91104 38.00961 1389 ft 209 kts 353°
2026-05-09 08:42 55.92523 38.01583 1711 ft 215 kts 29°
2026-05-09 08:42 55.93785 38.02851 1979 ft 209 kts 30°
2026-05-09 08:42 55.95045 38.04271 1808 ft 217 kts 47°
2026-05-09 08:42 55.95650 38.06697 1767 ft 217 kts 90°
2026-05-09 08:43 55.95278 38.09283 1724 ft 219 kts 121°
2026-05-09 08:43 55.94331 38.11408 1801 ft 214 kts 131°
2026-05-09 08:43 55.93416 38.13369 1830 ft 202 kts 130°
2026-05-09 08:43 55.92503 38.15257 1601 ft 202 kts 131°
2026-05-09 08:44 55.91578 38.17224 1384 ft 218 kts 128°
2026-05-09 08:44 55.90642 38.19484 1832 ft 223 kts 124°
2026-05-09 08:44 55.89867 38.21740 1761 ft 212 kts 118°
2026-05-09 08:44 55.89207 38.24011 1604 ft 201 kts 132°
2026-05-09 08:45 55.88001 38.25163 1544 ft 197 kts 175°
2026-05-09 08:45 55.86676 38.24851 1629 ft 207 kts 205°
2026-05-09 08:45 55.85385 38.23692 1765 ft 215 kts 208°
2026-05-09 08:45 55.84099 38.22257 1613 ft 217 kts 215°
2026-05-09 08:46 55.82921 38.20569 1363 ft 229 kts 230°
2026-05-09 08:46 55.82628 38.18040 1429 ft 197 kts 289°
2026-05-09 08:46 55.83320 38.16217 1521 ft 168 kts 309°
2026-05-09 08:46 55.84089 38.14636 1524 ft 168 kts 310°
2026-05-09 08:47 55.84899 38.12931 1347 ft 200 kts 309°
2026-05-09 08:47 55.85791 38.11058 1023 ft 189 kts 310°
2026-05-09 08:47 55.86598 38.09364 753 ft 173 kts 309°
2026-05-09 08:47 55.87356 38.07729 526 ft 165 kts 309°
2026-05-09 08:48 55.88028 38.06325 507 ft 127 kts 310°
2026-05-09 08:48 55.88513 38.05320 507 ft 85 kts 310°
2026-05-09 08:48 55.88731 38.04873 507 ft 25 kts 308°
2026-05-09 08:48 55.88845 38.04620 507 ft 27 kts 310°
2026-05-09 08:49 55.88964 38.04356 507 ft 25 kts 287°
2026-05-09 08:49 55.88907 38.04238 507 ft 14 kts 187°
2026-05-09 08:49 55.88808 38.04212 507 ft 14 kts 189°
2026-05-09 08:49 55.88665 38.04231 507 ft 28 kts 131°
2026-05-09 08:50 55.88437 38.04702 507 ft 61 kts 126°
2026-05-09 08:50 55.88131 38.05331 507 ft 74 kts 129°
2026-05-09 08:50 55.87759 38.06079 507 ft 81 kts 130°
2026-05-09 08:50 55.87489 38.06634 507 ft 43 kts 129°
2026-05-09 08:51 55.87298 38.07029 507 ft 39 kts 131°
2026-05-09 08:51 55.87250 38.07285 507 ft 17 kts 46°
2026-05-09 08:51 55.87353 38.07357 507 ft 19 kts
2026-05-09 08:51 55.87605 38.07195 507 ft 72 kts 310°
2026-05-09 08:52 55.88108 38.06150 507 ft 147 kts 310°
2026-05-09 08:52 55.88874 38.04598 767 ft 188 kts 311°
2026-05-09 08:52 55.89798 38.02786 983 ft 202 kts 313°
2026-05-09 08:52 55.90918 38.01371 1375 ft 204 kts 343°
2026-05-09 08:53 55.92387 38.01470 1590 ft 229 kts 22°
2026-05-09 08:53 55.93881 38.02799 1829 ft 244 kts 28°
2026-05-09 08:53 55.95102 38.04889 1749 ft 254 kts 62°
2026-05-09 08:53 55.95407 38.07995 1729 ft 264 kts 102°
2026-05-09 08:54 55.94696 38.11012 2008 ft 268 kts 124°
2026-05-09 08:54 55.93618 38.13721 1825 ft 263 kts 128°
2026-05-09 08:54 55.92570 38.15960 1882 ft 239 kts 131°
2026-05-09 08:54 55.91490 38.18062 1792 ft 224 kts 134°
2026-05-09 08:55 55.90514 38.20108 1697 ft 211 kts 129°
2026-05-09 08:55 55.89649 38.22150 1566 ft 200 kts 127°
2026-05-09 08:55 55.88829 38.24056 1509 ft 190 kts 130°
2026-05-09 08:55 55.87799 38.25373 1441 ft 187 kts 166°
2026-05-09 08:56 55.86512 38.25272 1855 ft 197 kts 201°
2026-05-09 08:56 55.85208 38.24212 1620 ft 216 kts 206°
2026-05-09 08:56 55.83891 38.22964 1554 ft 202 kts 210°
2026-05-09 08:56 55.82966 38.21279 1393 ft 188 kts 245°
2026-05-09 08:57 55.82690 38.19190 1351 ft 168 kts 273°
2026-05-09 08:57 55.83040 38.17176 1345 ft 176 kts 297°
2026-05-09 08:57 55.83752 38.15382 1427 ft 182 kts 310°
2026-05-09 08:57 55.84596 38.13648 1437 ft 182 kts 310°
2026-05-09 08:58 55.85367 38.11995 1099 ft 170 kts 308°
2026-05-09 08:58 55.86098 38.10393 842 ft 166 kts 308°
2026-05-09 08:58 55.86854 38.08768 637 ft 174 kts 309°
2026-05-09 08:58 55.87597 38.07222 508 ft 154 kts 309°
2026-05-09 08:59 55.88156 38.06055 507 ft 96 kts 310°
2026-05-09 08:59 55.88461 38.05427 507 ft 36 kts 310°
2026-05-09 08:59 55.88639 38.05069 507 ft 39 kts 313°
2026-05-09 08:59 55.88815 38.04714 507 ft 38 kts 314°
2026-05-09 09:00 55.88963 38.04400 507 ft 20 kts 307°
2026-05-09 09:00 55.88884 38.04240 507 ft 32 kts 192°
2026-05-09 09:00 55.88753 38.04062 507 ft 25 kts 293°
2026-05-09 09:00 55.88816 38.03831 507 ft 11 kts 238°
2026-05-09 09:01 55.88703 38.03744 507 ft 19 kts 190°
2026-05-09 09:01 55.88639 38.03603 507 ft 12 kts 271°
2026-05-09 09:01 55.88646 38.03408 507 ft 18 kts 267°
2026-05-09 09:01 55.88564 38.03311 507 ft 15 kts 206°
2026-05-09 09:02 55.88444 38.03206 507 ft 25 kts 189°
2026-05-09 09:02 55.88338 38.03167 507 ft 0 kts 191°
2026-05-09 09:09 55.88346 38.03167 507 ft 2 kts 165°
2026-05-09 09:09 55.88358 38.03151 507 ft 2 kts 117°
2026-05-09 09:10 55.88360 38.03126 507 ft 2 kts 93°
2026-05-09 09:10 55.88363 38.03100 507 ft 2 kts 102°
2026-05-09 09:10 55.88364 38.03083 507 ft 0 kts 99°
2026-05-09 09:11 55.88364 38.03084 507 ft 0 kts 99°